This is the latest recevied weather packets stored in our database for station/object DM4RS-1. If no packets are shown the sender has not sent any weather packets the latest 10 day(s).
| Time | Temp. | Humidity | Pressure | Rain* | Wind** | Luminosity | Snow |
|---|---|---|---|---|---|---|---|
| 1777554388 | 20° C | 34% | 1032 hPa | - | - | - | - |
| 1777553787 | 20° C | 33% | 1031.3 hPa | - | - | - | - |
| 1777553187 | 20° C | 33% | 1032.2 hPa | - | - | - | - |
| 1777552587 | 20° C | 34% | 1032.1 hPa | - | - | - | - |
| 1777551987 | 19.44° C | 33% | 1032.3 hPa | - | - | - | - |
| 1777550787 | 19.44° C | 33% | 1032 hPa | - | - | - | - |
| 1777550186 | 18.89° C | 33% | 1032.9 hPa | - | - | - | - |
| 1777549586 | 19.44° C | 34% | 1033.4 hPa | - | - | - | - |
| 1777548985 | 18.89° C | 33% | 1031.3 hPa | - | - | - | - |
| 1777548385 | 18.89° C | 33% | 1031.8 hPa | - | - | - | - |
| 1777547785 | 18.33° C | 32% | 1032.2 hPa | - | - | - | - |
| 1777547184 | 18.33° C | 32% | 1032.4 hPa | - | - | - | - |
| 1777545384 | 17.22° C | 31% | 1032.7 hPa | - | - | - | - |
| 1777544784 | 17.78° C | 32% | 1033.6 hPa | - | - | - | - |
| 1777544184 | 17.22° C | 32% | 1033.2 hPa | - | - | - | - |
| 1777543584 | 17.22° C | 33% | 1033.5 hPa | - | - | - | - |
| 1777542984 | 16.67° C | 33% | 1034.1 hPa | - | - | - | - |
| 1777542383 | 16.67° C | 33% | 1034.2 hPa | - | - | - | - |
| 1777541783 | 16.67° C | 33% | 1034 hPa | - | - | - | - |
| 1777541183 | 16.11° C | 33% | 1034 hPa | - | - | - | - |
| 1777540583 | 16.11° C | 33% | 1035.7 hPa | - | - | - | - |
| 1777539383 | 15.56° C | 35% | 1033.5 hPa | - | - | - | - |
| 1777538783 | 15.56° C | 35% | 1033.7 hPa | - | - | - | - |
| 1777538182 | 15° C | 36% | 1033.6 hPa | - | - | - | - |
| 1777537582 | 14.44° C | 37% | 1033.8 hPa | - | - | - | - |
* Rain since midnight (hover to see other rain measurements)
** Current wind speed in m/s (hover to see current wind gust speed)